Simultaneous Nadir Overpasses (SNOs) Predictions

Prediction of SNOs between NPP and TERRA Satellite Orbit:

Table of predicted SNOs for the next 14.0 days since TLE Epoch: 1/29/2022
Index Date (NPP) Time (NPP) Lat,Lon (NPP) SZA (NPP ) Date (TERRA) Time (TERRA) Lat,Lon (TERRA) SZA (TERRA ) Distance(km) Time Diff (sec)
1 01/29/2022 21:52:08 69.18,-150.34 86.91 01/29/2022 21:52:44 69.20,-150.37 86.92 1.78 36
2 01/29/2022 22:42:50 -69.10, 17.10 93.19 01/29/2022 22:42:14 -69.09, 17.12 93.20 1.76 36
3 02/01/2022 13:18:24 -69.83, 157.20 93.15 02/01/2022 13:19:34 -69.71, 158.55 93.32 53.29 70
4 02/01/2022 14:08:57 69.14, -34.49 86.12 02/01/2022 14:09:09 69.16, -34.54 86.14 3.30 12
5 02/01/2022 14:59:39 -69.05, 132.95 93.99 02/01/2022 14:58:39 -69.05, 132.95 93.98 0.42 60
6 02/04/2022 05:35:04 -69.25, -86.17 94.54 02/04/2022 05:36:08 -69.23, -86.22 94.57 3.01 64
7 02/04/2022 06:25:48 69.14, 81.29 85.34 02/04/2022 06:25:35 69.11, 81.28 85.31 3.34 13
8 02/04/2022 07:16:22 -68.62,-110.69 95.22 02/04/2022 07:15:11 -68.67,-111.64 95.12 39.02 71
9 02/06/2022 21:51:55 -69.26, 29.61 95.35 02/06/2022 21:52:33 -69.23, 29.67 95.38 3.40 38
10 02/06/2022 22:42:38 69.10,-162.86 84.48 02/06/2022 22:42:00 69.11,-162.84 84.50 2.07 38
11 02/09/2022 13:18:12 69.79, -22.69 84.38 02/09/2022 13:19:22 69.67, -21.51 84.20 47.51 70
12 02/09/2022 14:08:44 -69.16, 145.53 96.30 02/09/2022 14:08:59 -69.18, 145.47 96.28 3.16 15
13 02/09/2022 14:59:28 69.06, -47.02 83.59 02/09/2022 14:58:26 69.05, -47.04 83.60 0.86 62



Historial Predications of SNOs between NPP and TERRA
